Flag for Poland Weather past 2 weeks in Kielce, Poland

Now
67 °F

Overcast.


Feels Like: 67 °F
Forecast: 49 / 69 °F
Wind: 7 mph from Northeast

Location: Kielce


UV Index: 3 (Moderate)

Visibility: 17 mi


Pressure: 30.06 "Hg

Humidity: 56%

Dew point: 51 °F

Location of KielceLocation

Historic Weather in Kielce

°F

Kielce temperature yesterday

Maximum temperature yesterday: 68 °F (at 11:00 AM)
Minimum temperature yesterday: 47 °F (at 6:00 AM)
Average temperature yesterday: 59 °F

Past Weeks' High & Low Weather Summary

 TemperatureHumidityPressure
High71 °F (Apr 22, 12:00 PM)100% (Apr 11, 3:00 AM)30.37 "Hg (Apr 11, 3:00 AM)
Low30 °F (Apr 13, 3:00 AM)39% (Apr 17, 3:00 PM)29.67 "Hg (Apr 14, 1:00 PM)
Average48 °F81%30.00 "Hg
* Reported Apr 9 2:00 PM — Apr 24 2:00 PM, Kielce, Weather by CustomWeather, © 2014

Note: Actual official high and low records may vary slightly from our data, if they occured in-between our weather recording intervals... More about our weather records

Advertising

Historic Weather Conditions — Data for Previous 24 hours

 ConditionsComfort  
Time TempWeatherWind HumidityBarometerVisibility
2:00 PM
Apr 24
68 °FOvercast.7 mph54%30.07 "Hg16 mi
1:00 PM67 °FOvercast.6 mph55%30.08 "Hg16 mi
12:00 PM67 °FOvercast.5 mph55%30.09 "Hg16 mi
11:00 AM67 °FOvercast.5 mph55%30.09 "Hg17 mi
10:00 AM66 °FOvercast.5 mph57%30.09 "Hg18 mi
9:00 AM63 °FOvercast.3 mph63%30.09 "Hg22 mi
8:00 AM60 °FOvercast.3 mph69%30.09 "Hg17 mi
7:00 AM53 °FOvercast.2 mph88%30.10 "Hg9 mi
6:00 AM49 °FOvercast.2 mph94%30.11 "Hg6 mi
5:00 AM49 °FPassing clouds.1 mph94%30.10 "Hg8 mi
4:00 AM52 °FPassing clouds.2 mph90%30.10 "Hg9 mi
3:00 AM53 °FPassing clouds.1 mph83%30.09 "Hg12 mi
2:00 AM51 °FPassing clouds.2 mph90%30.09 "Hg10 mi
1:00 AM53 °FPassing clouds.2 mph86%30.09 "Hg14 mi
12:00 AM55 °FPassing clouds.1 mph83%30.09 "Hg12 mi
11:00 PM
Apr 23
56 °FPassing clouds.1 mph77%30.09 "Hg17 mi
10:00 PM59 °FPassing clouds.1 mph65%30.09 "Hg19 mi
9:00 PM59 °FThunderstorms. Passing clouds.2 mph66%30.09 "Hg31 mi
8:00 PM61 °FThunderstorms. Overcast.3 mph74%30.08 "Hg9 mi
7:00 PM64 °FOvercast.1 mph72%30.05 "Hg8 mi
6:00 PM65 °FOvercast.1 mph67%30.05 "Hg14 mi
5:00 PM65 °FOvercast.1 mph63%30.05 "Hg16 mi
4:00 PM65 °FOvercast.3 mph64%30.05 "Hg15 mi
Weather by CustomWeather, © 2014

See weather overview